Wind_Speed
38 35 31 30 28 20 16 16 17 24 28 27 26 26 26 28 30 31 27 24 27 30 31 34 36 36 37 39 39 39 41 42 42 43 42 41 40 38 35 31 27 24 21 19 17 16 15 14 14 15 15 15 16 15 16 16 18 20 22 24 26 28 30 32 34 35 35 36 36 36 36 35 35 34 34 34 33 33 32 31 31 30 30 29 28
35 35 33 31 30 25 20 20 21 24 28 30 30 28 27 29 31 30 25 22 25 26 29 33 34 36 37 39 38 36 38 40 40 39 39 39 40 40 39 38 35 32 30 28 26 24 23 22 22 22 23 23 24 24 25 27 29 31 32 33 35 36 37 38 38 38 38 38 37 37 36 35 34 33 33 32 32 32 31 31 30 29 28 27 26
33 31 30 30 30 29 27 25 26 25 25 28 29 29 29 31 30 28 24 22 23 22 26 30 32 34 35 35 37 36 37 38 38 37 36 35 36 36 37 37 37 36 35 34 33 32 31 30 30 30 31 31 32 32 33 34 35 36 37 38 38 39 39 39 39 39 38 37 36 35 34 33 32 31 31 30 30 30 29 28 27 26 25 25 24
33 30 28 27 25 27 28 27 29 28 26 26 25 26 28 29 28 26 24 24 25 23 24 27 29 32 31 31 33 34 35 35 35 35 34 33 33 33 33 32 33 33 33 34 35 35 36 36 35 35 35 36 37 37 37 38 38 38 38 39 39 39 39 38 38 37 36 34 33 32 31 30 29 29 28 28 27 26 25 25 25 24 24 25 26
32 30 29 27 23 25 27 27 29 29 27 25 24 25 25 24 25 25 24 25 26 26 26 27 28 30 30 30 30 30 32 32 32 31 31 30 30 31 30 29 29 28 28 29 30 32 33 34 35 35 36 36 37 37 37 37 37 37 38 37 37 37 36 36 35 34 33 32 31 30 28 27 26 25 24 23 23 23 23 24 25 25 25 27 28
27 27 28 27 25 25 26 26 28 28 26 24 24 25 24 23 23 23 25 26 26 27 28 28 28 28 29 29 29 29 30 31 31 30 28 28 27 27 27 26 26 26 25 25 26 27 28 28 29 30 31 32 33 33 34 34 35 35 35 35 34 34 33 32 32 31 30 29 28 27 25 24 22 21 21 21 21 22 23 24 25 25 26 26 27
24 23 23 24 24 25 27 26 27 28 27 25 25 25 23 23 22 23 25 26 26 27 27 28 28 28 28 28 29 30 30 31 31 29 28 27 26 24 23 23 22 22 22 23 23 24 24 24 25 25 26 27 28 29 30 31 31 32 32 31 31 30 30 29 29 28 27 26 25 23 22 20 19 19 19 20 21 21 22 22 23 23 23 23 24
25 24 21 19 20 22 25 25 25 27 26 24 24 24 23 22 22 23 24 25 25 26 26 27 27 28 28 28 29 30 31 32 31 30 29 27 25 23 22 20 19 19 20 20 20 20 20 21 21 22 22 23 23 24 25 26 27 27 28 27 27 26 26 25 25 24 24 23 21 20 19 18 18 18 18 18 18 18 19 19 19 19 20 21 21
26 24 21 19 20 20 22 23 24 24 23 23 22 22 22 22 22 23 24 25 25 26 26 26 27 27 28 29 29 30 32 32 32 31 29 27 25 22 20 19 18 17 16 16 17 17 17 17 18 18 19 19 20 20 20 21 22 22 23 23 22 22 21 21 20 19 19 18 17 16 16 16 16 15 15 15 14 14 14 14 15 16 18 19 19
25 24 22 21 21 20 20 22 22 20 21 21 21 21 22 21 22 24 24 25 26 26 26 26 26 27 28 28 29 30 32 33 33 32 30 28 25 23 20 18 17 15 14 13 13 14 14 14 14 14 15 15 15 16 16 16 17 17 17 17 17 17 16 16 15 14 13 13 13 13 13 13 13 12 11 11 10 10 11 11 13 15 17 18 18
24 24 23 20 19 19 19 19 18 17 19 19 19 21 23 23 23 24 25 26 26 26 26 26 26 27 28 28 29 30 32 33 34 33 31 29 26 24 21 19 16 15 13 12 11 11 10 11 11 11 11 11 11 11 11 11 11 11 12 12 12 11 11 10 10 10 10 9 9 9 9 9 9 9 8 8 8 8 9 10 12 14 16 17 17
21 22 22 20 19 18 18 18 16 16 18 18 18 21 22 23 23 24 25 26 26 26 26 26 26 27 28 29 30 31 33 34 35 34 32 29 26 24 22 20 18 16 14 12 10 9 8 7 7 7 7 7 7 6 6 6 6 6 6 6 7 6 6 6 6 6 6 6 6 6 6 6 6 6 6 7 7 8 10 11 12 14 15 16 16
19 20 21 21 21 19 19 19 17 16 17 17 18 21 20 20 22 23 24 25 26 26 27 27 27 27 28 29 30 32 34 35 36 35 32 29 26 24 22 20 19 17 15 13 11 9 8 6 5 4 3 3 3 3 3 2 2 2 2 2 2 2 2 2 2 2 2 3 3 4 4 4 5 6 6 7 8 10 11 12 13 14 15 15 15
18 19 19 19 19 19 18 19 19 17 17 17 17 19 19 18 20 22 23 25 25 25 26 27 27 27 28 29 31 32 34 36 37 35 32 29 27 25 23 21 19 17 16 15 13 11 9 6 5 3 3 2 2 2 2 3 3 3 3 3 3 3 3 3 3 3 4 4 5 5 6 5 6 7 8 9 9 10 11 12 13 15 16 15 14
17 17 17 17 17 17 17 18 19 18 18 18 16 16 18 18 20 21 22 23 24 25 26 26 26 27 28 29 30 32 34 36 37 36 32 29 27 25 23 21 20 18 17 15 14 12 11 9 7 5 3 3 4 5 5 6 6 6 6 7 7 7 7 7 6 6 6 6 6 6 6 7 7 8 8 9 9 10 11 12 14 15 16 15 13
15 16 16 16 16 16 16 17 18 18 17 17 16 15 17 17 18 20 20 21 23 24 25 26 26 26 28 29 30 32 34 36 37 36 32 28 26 25 23 21 20 18 17 16 15 13 12 11 10 8 6 5 4 5 6 8 9 9 10 10 10 10 10 10 10 9 9 8 7 6 6 6 7 8 8 7 8 9 10 12 15 16 16 16 14
13 14 14 15 15 15 15 15 16 16 16 15 15 14 15 16 17 18 18 20 22 23 24 25 25 26 27 28 30 31 33 36 37 35 31 27 25 23 22 21 19 18 18 17 16 15 14 13 11 10 9 7 6 5 5 6 8 9 11 12 13 13 13 12 12 12 11 10 9 7 6 6 7 7 6 6 7 9 12 14 16 16 17 16 15
11 12 12 12 13 13 13 13 14 14 14 13 13 14 14 15 16 17 17 19 21 22 23 24 24 25 26 27 29 30 32 34 36 34 29 26 24 22 21 20 19 19 19 18 17 16 15 14 12 10 9 8 7 6 5 6 6 7 9 10 11 12 12 13 13 13 13 12 12 10 8 6 6 6 6 6 8 11 14 16 16 16 17 16 15
10 10 10 10 10 10 10 10 11 11 12 11 12 12 13 14 15 16 17 18 20 21 22 23 23 24 25 26 27 28 30 33 34 32 28 24 22 21 20 19 19 19 19 18 18 17 15 14 12 11 10 9 8 7 7 6 6 6 7 8 8 9 9 10 11 12 12 12 11 10 8 6 6 6 7 8 11 14 16 15 15 15 15 16 16
8 8 7 7 7 7 7 7 8 9 10 10 11 12 13 13 14 16 17 18 19 21 21 22 22 23 23 24 26 27 28 31 33 31 27 23 21 20 19 19 19 19 19 19 19 17 15 14 13 12 11 11 10 9 8 7 7 6 6 6 7 7 7 7 7 8 8 9 9 8 7 6 7 8 10 11 13 14 13 12 13 13 13 14 15
5 5 5 5 5 5 5 5 5 7 8 10 11 12 13 13 14 15 17 18 19 20 20 21 21 21 22 23 24 25 27 29 31 30 26 22 20 19 19 20 20 20 20 21 20 19 17 15 14 13 13 12 11 10 9 8 7 7 6 6 6 6 6 6 6 6 6 6 5 5 6 7 8 9 11 11 12 11 11 10 11 11 12 13 14
3 3 3 3 3 3 2 2 4 5 7 9 10 12 13 14 14 15 16 17 19 20 20 20 20 20 21 22 23 24 26 29 30 29 25 20 18 18 19 20 21 22 22 23 22 22 20 17 16 15 15 14 13 11 10 10 10 10 9 9 8 8 8 8 8 8 7 6 4 3 4 6 7 9 9 9 9 9 9 9 10 11 13 14 16
1 1 1 1 1 0 1 2 3 5 7 8 10 12 13 14 15 15 16 17 18 19 20 19 19 20 20 21 22 23 25 28 30 28 24 19 17 17 19 20 21 23 24 25 25 24 21 19 17 17 17 16 15 14 14 14 14 14 14 14 14 13 13 12 11 10 10 9 8 6 4 4 6 6 7 7 7 8 8 9 11 13 15 17 17
1 1 1 1 1 2 2 3 4 5 7 8 10 12 13 14 14 15 16 17 18 19 19 19 19 19 19 20 21 23 24 26 29 27 23 18 17 17 18 20 22 23 25 26 26 24 21 19 18 18 19 19 20 20 21 22 22 23 23 24 24 23 22 20 18 16 14 13 12 9 6 4 4 4 4 5 5 7 8 11 14 16 17 18 18
3 3 3 3 3 3 4 4 5 6 7 8 10 11 12 13 14 15 16 18 19 19 19 19 18 18 18 19 20 21 23 25 27 27 23 18 16 17 18 20 22 23 25 27 26 23 21 20 20 20 22 24 27 29 30 31 31 32 32 32 31 30 29 27 25 23 20 17 14 11 8 5 4 3 1 3 5 7 9 11 14 16 16 17 18
5 5 5 5 4 5 5 6 6 7 7 8 9 11 12 13 14 15 17 18 19 20 19 18 18 17 17 18 19 20 21 23 26 26 22 18 16 16 18 20 21 24 26 26 25 22 21 20 21 22 24 28 30 32 33 33 33 33 32 31 30 29 28 27 26 24 21 18 14 11 8 6 4 1 2 4 6 8 10 13 16 18 19 20 20
7 7 7 6 6 6 7 7 7 7 8 8 9 10 11 12 13 15 16 18 19 20 19 18 17 17 16 17 18 19 20 22 25 26 22 17 15 16 18 19 21 23 25 26 23 21 20 20 21 23 25 28 30 30 30 30 30 29 28 28 27 26 25 25 24 21 19 17 13 10 7 4 2 1 3 5 7 10 12 15 18 21 23 24 23
9 8 8 8 7 7 8 8 8 8 8 8 9 10 11 12 13 14 16 17 19 20 19 18 17 16 16 16 17 18 19 20 23 26 23 18 15 15 17 19 21 23 25 25 22 20 20 20 21 22 24 26 27 26 27 26 26 25 24 23 22 22 21 21 21 20 18 16 13 10 7 5 4 4 6 8 11 13 16 18 20 23 25 27 28
11 10 10 9 9 9 9 9 9 8 8 8 9 10 11 12 13 14 15 17 18 19 19 18 17 16 15 16 16 17 18 19 22 25 24 19 15 15 16 18 21 23 25 25 22 19 20 20 21 21 22 23 23 23 24 24 24 23 21 20 20 19 19 19 21 21 20 18 16 13 11 10 9 10 12 14 16 18 21 23 24 26 28 30 32
13 12 12 11 11 10 10 10 10 9 9 9 9 10 11 12 13 14 15 17 18 19 19 19 18 17 16 15 15 16 17 18 20 23 24 20 15 15 16 17 20 23 24 25 22 19 19 19 19 19 19 19 19 21 23 24 24 23 21 19 19 20 20 21 22 22 20 19 19 17 16 15 15 16 17 19 21 23 25 27 29 31 33 34 34
15 14 14 13 13 12 12 12 12 11 10 9 10 11 12 13 13 14 15 16 18 19 19 19 18 17 16 15 15 15 16 17 18 21 24 22 16 14 15 16 19 21 22 23 21 19 19 18 17 17 16 16 16 18 21 22 22 21 20 19 20 22 23 23 23 22 19 18 18 18 18 19 20 21 22 23 25 26 28 30 32 32 33 33 33
17 16 16 15 14 14 14 13 13 13 12 11 11 12 13 13 13 14 16 16 17 18 19 19 19 18 17 15 14 14 15 17 17 19 23 23 18 14 13 14 16 19 20 20 21 20 20 19 19 18 17 17 17 17 19 20 21 20 20 21 21 23 23 22 23 24 23 21 21 22 23 23 24 24 25 26 27 28 29 30 31 32 33 34 35
19 18 17 16 16 15 15 15 15 14 14 13 12 13 14 14 14 14 15 16 17 18 18 19 19 18 17 16 14 14 14 16 17 18 21 23 20 15 13 13 14 16 17 17 18 20 21 21 20 19 18 18 18 18 19 20 20 20 21 21 22 23 24 24 25 26 26 26 25 26 27 27 27 27 27 28 28 30 31 32 33 34 35 36 38
21 20 19 18 17 17 16 16 16 16 15 15 14 14 15 15 15 15 15 16 17 17 17 18 18 18 18 17 15 14 13 15 16 17 19 22 21 17 13 12 12 13 13 13 14 17 19 19 18 16 17 18 18 19 21 21 21 20 20 21 22 23 25 26 26 26 26 26 27 27 27 27 28 29 30 30 31 32 34 34 34 35 35 36 37
23 22 21 20 19 19 18 18 17 17 17 16 16 16 16 16 16 16 15 16 16 17 16 17 17 17 17 17 16 14 13 14 15 16 17 19 21 19 15 12 11 11 11 10 9 11 12 14 14 13 15 18 19 20 21 22 23 23 23 23 24 25 26 26 25 25 24 24 26 27 28 28 29 30 31 31 32 32 33 33 34 34 35 36 37
24 23 22 22 21 20 20 19 19 19 18 18 18 17 17 17 17 17 16 16 16 17 17 16 16 17 17 17 17 16 14 13 14 15 15 17 19 19 17 14 12 10 9 8 6 5 4 5 9 10 13 17 18 19 20 22 24 26 26 25 25 26 25 25 24 23 23 24 25 26 26 27 28 29 30 31 32 32 32 33 34 35 36 37 38
24 24 23 23 22 21 22 22 21 21 20 19 19 19 19 18 19 19 18 17 17 17 17 17 16 17 17 17 17 16 15 14 14 14 15 15 16 18 18 16 14 11 9 7 6 6 6 7 7 8 11 15 17 18 20 21 24 26 26 25 24 23 22 22 22 23 23 25 26 26 27 28 29 29 30 32 33 34 34 35 36 37 38 39 41
25 24 24 24 23 22 23 23 23 23 22 21 21 21 20 20 20 20 20 19 18 18 18 18 17 17 17 18 18 18 16 15 15 15 15 15 15 16 17 17 16 13 10 8 7 8 9 10 10 11 11 14 16 18 18 19 22 26 26 25 24 22 21 21 21 22 23 25 26 27 29 30 31 32 33 35 35 35 36 37 38 39 40 41 42
27 26 26 25 24 23 24 25 25 25 23 22 22 22 22 22 22 22 21 21 20 20 20 20 19 18 18 18 19 20 18 17 16 16 16 16 16 15 16 16 17 15 12 10 9 10 11 11 12 13 12 14 17 19 19 18 22 26 28 27 26 22 19 20 21 21 21 22 25 27 29 29 30 31 33 34 36 37 37 38 39 39 40 41 43
29 28 28 27 25 25 25 27 27 26 25 23 23 23 24 24 24 24 23 23 22 22 22 21 21 20 19 19 20 21 21 19 17 17 17 18 17 16 16 16 16 16 14 12 11 12 14 13 13 14 14 14 17 21 21 21 23 26 28 29 29 25 19 18 21 22 21 21 23 26 29 30 29 29 31 33 35 37 38 40 41 41 41 42 43
31 30 30 29 28 27 27 28 29 28 26 25 24 24 25 26 26 25 25 25 24 24 23 23 23 22 21 21 21 22 23 23 21 19 18 19 19 18 17 17 16 16 15 14 13 14 16 16 15 15 16 16 19 22 24 25 25 26 27 29 31 29 22 17 20 22 23 23 23 24 27 30 30 31 32 34 35 36 38 40 42 43 44 45 45
33 32 32 31 30 29 29 30 30 30 28 26 25 26 27 27 27 27 26 26 26 26 25 25 25 24 23 23 23 23 24 25 24 22 21 21 21 20 19 18 18 17 16 15 15 15 16 17 17 17 18 20 22 24 26 27 27 26 27 28 30 28 22 18 18 21 23 24 23 24 26 29 31 32 34 35 36 37 38 40 41 43 45 47 48
34 34 34 33 33 32 32 32 32 31 30 28 27 27 28 29 29 28 28 28 28 27 26 26 26 26 26 25 25 25 26 26 26 26 24 23 23 23 21 20 20 19 18 17 17 17 17 18 19 20 21 22 25 27 27 28 28 27 27 29 30 27 22 19 19 21 24 26 26 26 27 29 31 32 33 35 36 38 39 39 41 43 45 47 48
34 34 35 35 35 34 34 34 34 33 32 30 29 29 30 31 31 31 30 30 29 29 28 28 28 28 28 27 27 28 28 28 28 28 27 26 25 25 24 23 22 22 21 20 19 19 19 18 19 21 23 23 25 28 29 29 29 28 28 30 31 28 22 20 20 22 24 26 27 27 28 30 32 32 34 36 38 39 41 42 42 43 45 47 50
34 35 35 36 36 36 36 36 35 35 34 33 33 32 32 33 33 33 33 32 31 31 30 30 30 30 30 30 30 30 30 30 30 30 30 29 28 27 27 26 25 24 23 22 21 21 21 20 20 22 24 24 25 28 30 31 31 30 30 31 31 28 22 19 21 23 24 25 27 29 29 30 33 34 35 37 38 40 41 44 45 46 48 50 51
36 36 37 36 36 36 36 37 37 36 36 36 36 35 35 35 36 36 36 35 34 34 33 33 33 32 32 31 31 31 32 32 32 32 32 32 31 30 29 28 28 27 26 25 24 23 23 23 22 23 25 26 26 28 30 32 33 33 32 32 31 27 22 21 23 24 25 26 28 31 32 32 34 36 36 37 38 39 40 42 46 48 50 52 53
38 38 38 37 37 37 37 38 38 37 37 38 38 37 38 38 39 39 40 39 38 37 36 36 35 35 34 33 33 33 33 34 34 34 33 33 33 33 32 31 31 30 29 28 26 26 26 26 25 25 26 27 27 28 30 31 33 34 33 33 31 27 24 25 26 26 27 28 30 32 33 33 35 37 38 39 39 41 41 42 45 48 50 53 55
39 39 39 38 38 38 37 37 38 37 38 39 39 39 40 41 42 43 43 42 41 40 39 38 38 37 36 35 34 34 35 35 36 35 35 35 35 34 34 34 33 33 32 31 29 28 28 29 28 28 29 29 29 30 31 32 33 34 34 34 33 29 29 31 32 32 33 32 32 33 34 35 35 37 40 42 41 41 43 44 45 48 50 53 56
39 40 40 40 39 38 37 37 38 38 38 39 40 40 41 42 43 44 45 44 43 42 41 40 39 38 37 36 36 35 36 37 37 37 37 38 37 35 35 35 35 35 34 33 32 31 31 31 31 30 31 32 31 32 33 34 35 35 35 36 36 36 37 38 39 41 40 37 36 37 37 37 37 37 40 44 45 43 43 45 47 48 50 52 55
40 41 41 41 41 40 39 38 38 39 39 40 41 41 42 43 44 45 45 45 45 43 42 40 39 39 38 38 37 37 38 38 39 39 40 40 39 37 37 37 37 36 35 35 35 34 33 33 32 32 33 34 35 35 35 36 37 37 38 39 39 40 42 43 44 46 45 41 39 39 40 40 40 39 40 43 46 47 45 46 48 49 50 52 54
41 42 42 43 43 42 41 40 40 40 40 41 42 43 43 43 44 45 46 46 45 43 41 39 39 39 39 39 39 40 40 40 40 41 42 42 41 40 39 38 38 38 37 37 37 37 36 35 34 34 34 35 36 37 37 38 39 40 40 40 40 40 42 44 46 46 46 43 41 40 41 42 42 43 42 41 43 47 48 48 49 50 51 53 54
Wind_Direction
93 95 93 85 82 83 72 73 77 71 70 75 74 69 66 63 62 63 58 53 57 55 55 59 58 58 59 59 60 59 61 64 66 69 70 71 72 72 72 74 76 78 81 83 85 87 88 91 92 92 91 89 87 85 84 85 85 85 85 86 87 88 89 89 89 88 87 85 82 80 78 76 75 73 71 69 68 66 65 64 62 61 59 57 54
95 95 91 82 82 89 86 84 86 77 71 69 69 70 72 70 67 68 66 60 63 59 56 60 58 59 60 58 59 58 59 60 61 64 66 68 69 70 70 70 71 74 77 80 82 84 86 88 89 90 91 91 91 91 92 92 92 93 92 93 93 93 91 89 87 85 82 80 77 75 73 72 70 69 67 66 65 64 63 62 61 60 58 57 55
94 94 88 83 84 89 90 90 88 80 71 66 65 69 71 72 72 72 71 66 68 66 59 60 58 58 59 57 58 59 58 58 58 59 60 62 65 68 69 69 69 70 73 77 81 84 86 88 89 91 93 94 95 95 95 95 95 96 95 94 92 89 86 84 81 79 77 76 74 73 71 70 68 66 65 64 64 64 63 64 64 64 63 63 62
90 90 89 90 89 87 87 86 86 83 76 70 67 69 69 71 73 73 72 67 68 69 63 61 59 58 61 59 58 58 57 57 56 56 56 56 58 62 64 67 68 69 70 72 76 81 84 86 89 91 93 95 96 97 96 96 95 93 91 88 85 82 80 78 76 76 75 74 73 72 70 68 67 65 66 66 66 67 67 68 69 69 69 67 64
90 87 87 92 93 87 85 82 83 84 79 74 70 69 70 71 72 71 70 68 67 67 63 62 59 58 60 60 58 57 56 56 54 54 54 54 55 56 58 60 63 66 67 68 70 73 76 81 84 87 90 92 93 94 93 91 89 86 83 81 79 77 76 75 74 73 72 72 70 68 67 65 65 66 67 69 69 70 71 71 72 71 68 64 60
93 86 81 86 89 86 84 82 82 84 80 77 74 72 71 70 68 66 67 66 64 64 62 59 58 56 56 57 56 55 53 52 50 50 50 52 53 54 56 56 57 59 61 63 64 65 68 71 75 78 81 83 84 85 85 84 83 81 80 79 77 75 74 72 71 70 69 67 66 65 64 64 66 69 70 71 72 74 74 74 73 70 66 62 57
95 91 84 83 85 82 82 82 81 82 79 76 76 76 73 70 68 65 63 63 61 61 60 59 56 54 53 52 52 51 49 47 45 45 45 47 50 52 55 56 56 56 56 57 59 60 61 63 66 68 71 73 75 76 78 79 79 79 79 77 76 75 73 71 69 67 66 65 64 64 65 68 71 73 75 76 78 78 77 76 74 70 66 61 56
93 94 90 85 86 82 80 81 80 80 78 75 74 73 72 68 65 64 61 60 59 56 56 56 54 52 50 49 48 47 44 42 40 40 41 43 45 48 52 55 56 57 56 56 57 58 57 58 59 60 63 64 66 69 71 73 76 77 78 78 77 75 73 70 68 66 66 66 66 68 69 72 75 77 80 82 83 81 80 77 73 69 64 59 53
90 92 94 92 90 85 81 81 80 79 75 72 69 67 69 64 59 60 59 57 56 54 52 51 50 49 47 47 45 43 41 38 37 36 37 39 42 45 48 51 55 57 58 58 58 58 57 56 55 56 57 58 60 62 65 68 72 75 77 78 77 76 74 71 69 67 68 68 69 70 71 73 75 78 81 84 85 83 80 76 70 64 57 53 49
87 89 94 92 87 85 83 80 78 76 72 68 65 64 66 63 56 57 56 54 54 52 50 47 46 45 44 44 42 41 39 35 34 33 34 35 37 40 43 47 52 55 59 60 62 62 60 58 56 54 54 54 56 57 60 64 68 72 75 77 79 79 78 75 73 72 70 69 70 71 72 73 74 76 79 83 83 80 74 67 61 54 49 46 43
87 89 92 90 86 84 81 79 73 68 69 67 64 65 67 64 58 56 54 52 52 51 50 46 43 41 41 41 39 38 36 33 32 31 32 33 34 36 38 40 44 48 51 54 59 62 63 63 60 57 55 53 53 52 54 56 60 66 69 74 78 81 83 82 80 76 70 67 66 66 69 70 70 72 74 76 72 64 54 47 43 40 39 38 37
86 88 91 93 93 90 85 84 75 63 63 64 63 63 64 63 58 54 52 50 50 48 48 46 42 39 38 37 36 35 34 31 30 30 30 32 34 36 36 37 39 41 44 45 48 50 53 60 61 60 59 55 52 48 48 46 46 49 55 62 68 75 81 82 78 69 63 59 52 50 50 53 57 58 56 51 44 38 31 28 25 24 27 30 30
86 86 89 92 94 95 90 88 85 75 67 64 61 60 61 61 56 53 49 48 47 45 45 45 41 38 35 34 33 32 31 29 28 28 29 31 35 37 38 37 38 38 40 42 42 41 37 36 40 41 44 42 42 39 31 26 18 13 13 22 33 40 51 54 48 31 16 9 6 3 4 11 17 20 22 21 19 19 18 17 16 15 19 22 22
88 88 89 91 92 94 92 89 90 87 80 71 63 59 59 57 51 49 47 44 44 43 42 42 39 36 34 33 31 30 29 27 26 26 28 31 34 37 38 39 39 39 41 42 42 41 36 29 23 9 347 333 327 321 314 304 293 283 275 270 268 266 268 270 276 280 289 299 307 318 328 336 347 355 1 4 6 6 5 7 8 8 11 15 14
91 90 90 91 92 93 93 92 91 88 83 76 69 60 57 53 46 45 43 38 40 41 39 39 37 35 33 32 30 29 28 26 24 24 26 30 33 35 37 38 39 40 42 43 41 40 38 34 30 18 348 314 297 288 285 283 280 276 269 263 258 255 252 253 257 261 268 279 293 308 320 330 339 344 350 355 357 356 355 357 359 1 3 7 6
92 92 93 94 95 94 94 92 89 85 80 76 72 61 53 49 43 44 41 33 35 37 36 36 35 33 32 30 29 28 27 25 23 22 24 29 33 34 35 36 37 40 42 41 39 37 35 32 30 26 16 354 323 299 286 279 274 274 272 271 267 264 261 258 258 261 264 271 282 298 315 325 332 337 343 348 350 349 348 350 354 356 358 360 357
92 92 95 96 98 97 95 92 87 83 78 73 68 59 52 46 41 41 37 30 32 34 33 33 32 32 31 29 28 27 26 25 22 22 24 28 32 34 36 37 37 39 41 39 37 34 32 29 26 23 19 12 359 335 308 290 279 273 270 270 270 268 268 268 267 268 270 274 278 285 295 309 319 327 334 338 345 349 348 351 353 353 353 353 349
92 93 95 97 99 98 96 92 87 83 77 72 65 58 52 46 42 39 33 29 30 31 30 30 30 30 30 29 28 27 26 24 22 21 24 28 31 34 37 38 38 38 39 38 35 33 30 26 23 21 17 11 3 351 331 313 295 284 278 274 273 273 274 275 274 273 273 275 277 279 284 294 305 316 324 330 342 347 349 351 352 350 349 348 345
94 95 97 98 100 99 96 91 87 81 75 68 61 55 49 44 41 37 31 28 27 28 28 27 28 29 29 28 28 27 26 24 21 21 24 28 30 34 37 38 38 36 36 36 34 33 29 22 21 19 16 11 3 354 343 331 320 307 298 293 292 293 292 287 283 279 276 275 275 276 282 287 296 307 314 322 333 341 346 349 348 346 345 342 341
97 100 103 103 102 100 95 87 79 73 65 58 50 45 42 37 33 30 27 25 24 25 25 25 26 27 27 28 28 26 26 24 21 21 25 29 31 33 36 38 38 35 32 31 29 27 23 18 17 17 14 10 2 356 351 346 341 336 330 325 322 319 315 309 302 298 292 284 279 277 282 284 289 300 312 322 334 343 348 349 345 342 342 339 339
91 100 107 109 108 105 94 79 65 57 50 43 36 31 29 27 25 24 22 20 20 21 22 23 24 25 26 27 27 26 25 24 21 21 26 30 31 33 35 34 33 32 29 26 23 20 17 16 15 14 11 7 3 3 6 8 9 11 11 9 2 355 349 346 342 340 338 325 305 289 285 291 299 311 323 334 344 352 353 349 343 338 336 335 335
73 85 99 106 107 101 86 58 38 34 33 28 23 18 16 16 16 17 17 16 17 17 18 20 21 24 25 26 26 25 24 23 20 21 26 30 30 32 33 31 29 29 26 23 20 17 16 16 16 16 16 15 17 23 30 33 36 37 39 38 34 29 24 20 14 13 15 17 12 339 311 315 324 332 340 349 355 354 349 342 335 330 327 326 326
46 58 82 106 118 71 3 357 1 7 13 13 11 8 6 6 8 10 12 13 13 14 14 17 20 23 24 25 25 24 23 22 19 20 25 30 29 28 30 29 26 27 26 22 19 18 18 20 23 25 27 30 35 39 42 44 46 48 50 51 51 50 48 45 41 39 38 41 46 47 29 6 357 358 3 3 355 343 336 329 322 320 319 319 320
320 313 291 271 260 271 293 310 327 340 351 357 359 358 357 358 0 4 6 8 10 11 12 14 17 21 23 24 24 23 22 21 18 18 23 28 28 26 27 27 26 28 26 22 20 21 24 30 35 38 42 48 53 56 58 60 62 65 67 68 69 69 68 69 68 67 65 64 68 71 68 52 37 35 24 359 338 327 322 320 319 319 319 318 318
307 306 298 289 283 281 284 290 303 317 331 340 346 349 350 352 355 360 2 5 7 8 10 12 16 20 22 23 22 22 21 19 17 16 20 26 26 24 25 26 27 28 26 23 22 26 34 43 48 51 58 65 69 72 73 73 75 76 77 77 76 76 76 76 77 78 79 79 83 89 88 84 81 71 17 319 311 312 315 321 328 332 335 334 331
299 303 303 303 298 295 291 293 296 302 314 325 333 339 343 347 351 356 360 3 5 5 7 10 14 18 20 21 21 20 20 18 16 14 17 22 23 22 22 25 28 29 25 23 24 33 45 55 60 62 69 75 78 80 80 80 80 80 80 78 77 76 76 76 75 75 74 76 82 93 101 108 118 151 260 283 295 305 316 328 338 344 347 346 345
290 294 299 302 301 299 297 297 298 300 307 316 325 332 337 342 347 353 358 1 3 3 5 9 13 16 18 19 19 18 18 18 15 12 14 19 21 21 21 25 30 29 25 23 26 40 54 65 69 70 74 78 78 79 79 79 79 78 77 75 73 72 71 69 66 64 64 66 69 79 89 96 109 264 284 295 304 314 323 331 339 343 343 342 341
280 284 289 294 295 294 294 295 296 299 303 310 318 326 331 337 343 350 354 359 1 2 3 6 11 14 15 16 17 16 16 16 14 11 11 15 18 21 20 24 30 29 26 25 29 45 60 71 76 75 79 82 79 77 75 73 72 70 68 66 63 61 59 56 52 49 51 53 54 56 49 29 2 330 313 310 315 320 325 328 331 334 335 335 333
271 276 280 285 288 289 289 290 292 294 297 304 310 317 324 331 338 344 351 356 359 1 2 4 8 11 12 13 14 14 13 13 13 10 9 11 15 21 21 24 31 31 28 28 34 50 64 76 82 79 80 82 80 73 68 63 58 55 53 52 48 44 41 39 34 30 31 32 30 27 19 5 350 336 326 323 323 324 325 325 325 325 326 327 326
265 271 276 279 283 286 286 286 287 288 289 293 301 309 317 325 331 338 346 353 358 360 1 2 5 7 8 10 12 12 10 11 11 9 9 9 11 20 22 24 33 34 31 34 40 54 66 77 86 86 82 80 73 62 54 47 41 37 34 33 32 29 25 22 18 17 18 17 14 9 2 354 346 340 333 329 325 324 323 322 323 323 324 325 327
261 266 270 274 279 282 284 284 283 283 283 286 292 301 309 318 325 331 339 348 355 358 359 359 2 4 5 6 9 11 8 7 10 9 8 8 9 16 22 24 34 39 36 37 44 55 66 73 81 83 77 71 62 48 38 31 25 22 19 16 16 15 14 13 9 6 5 4 1 356 350 344 339 336 332 329 326 325 325 327 328 330 332 334 337
258 261 265 270 274 277 280 281 280 280 279 280 285 292 302 311 319 325 333 342 350 355 356 356 358 1 2 3 6 8 6 4 6 8 9 9 7 11 18 22 34 43 43 41 46 55 62 67 70 70 65 58 49 38 30 23 16 12 9 5 3 2 3 4 359 355 352 348 345 343 340 336 334 333 333 334 336 336 338 340 341 343 344 344 345
257 260 263 266 269 273 275 277 277 277 275 276 278 285 294 302 310 318 326 335 343 350 352 352 353 357 359 360 2 4 3 1 2 6 8 9 8 7 11 15 28 44 48 45 49 58 63 64 63 61 55 45 35 27 22 18 14 8 2 356 354 351 351 351 349 347 347 344 341 341 341 342 341 344 347 348 349 349 348 348 347 346 346 347 347
257 259 262 264 266 268 271 273 274 274 272 272 273 278 286 294 302 310 318 327 335 342 347 347 348 350 354 355 356 359 359 357 358 2 6 9 8 5 2 5 17 38 50 49 51 60 64 60 55 48 37 25 18 15 13 12 11 9 2 353 347 344 343 344 346 349 350 349 347 349 353 356 356 357 358 357 356 354 352 350 348 347 347 347 348
255 257 260 262 264 266 268 270 271 271 270 270 270 272 278 286 293 300 309 318 326 333 339 341 341 343 347 349 351 352 354 352 353 356 1 6 7 5 360 357 4 22 41 49 53 60 63 62 57 45 25 14 10 10 10 9 9 8 3 356 349 344 342 343 348 353 356 356 356 359 1 3 3 1 359 358 358 357 355 353 352 351 351 350 351
253 256 258 261 263 265 267 268 268 268 268 268 267 269 273 279 286 292 299 307 315 322 328 332 334 334 336 339 343 345 346 345 345 349 354 359 4 5 1 356 354 4 20 32 37 34 25 39 45 36 19 9 2 2 5 9 9 5 0 356 350 347 344 343 345 350 355 358 1 3 4 4 4 2 358 358 0 1 359 357 355 355 355 355 356
253 254 256 259 261 263 265 266 266 266 266 267 266 267 270 274 279 285 290 297 304 311 317 323 326 327 326 327 331 336 338 338 338 339 345 349 355 0 1 358 353 351 357 3 5 352 326 320 338 354 1 359 352 349 354 1 4 0 356 352 348 345 343 341 342 345 352 359 1 1 2 2 2 1 359 360 2 3 1 359 358 358 358 358 358
252 253 254 256 258 260 263 264 264 264 265 266 267 268 269 271 275 279 284 289 295 301 306 311 317 320 319 318 319 324 328 330 330 330 334 339 345 351 356 358 355 350 346 342 337 332 318 313 325 333 337 341 338 335 337 347 354 354 352 348 343 341 342 340 339 343 352 0 1 357 359 3 3 0 359 360 2 3 1 359 359 359 359 360 360
251 252 252 253 255 258 260 261 262 263 264 265 266 268 268 269 272 276 279 283 288 293 297 302 306 311 313 312 311 313 317 321 323 323 324 327 333 340 345 350 353 352 346 335 324 316 310 313 327 331 329 330 325 321 322 331 342 345 346 344 338 336 341 341 338 341 349 358 1 357 355 0 3 360 358 359 0 0 360 0 0 360 359 359 360
251 251 252 252 252 255 257 259 261 262 263 264 265 267 268 269 270 273 276 279 282 286 290 294 298 302 306 307 307 306 307 310 313 316 317 318 322 329 334 338 344 349 349 339 323 312 309 313 319 320 321 320 314 310 312 320 331 336 339 339 335 330 333 339 339 341 344 350 359 358 353 353 357 357 356 358 360 0 360 360 0 359 358 358 358
249 250 251 252 251 252 254 257 259 261 262 263 264 266 267 268 269 271 274 276 278 282 285 289 292 295 299 302 303 302 302 302 304 306 309 311 313 318 324 328 331 337 343 341 330 316 310 310 312 311 310 307 302 302 307 313 320 328 333 335 331 325 324 332 339 341 342 345 353 357 352 348 350 352 352 354 358 0 0 360 359 358 357 358 358
247 248 250 252 252 251 253 255 258 260 261 262 264 265 266 267 268 270 272 274 276 279 282 284 287 290 293 296 299 300 299 298 297 298 300 303 306 309 314 319 321 325 330 334 332 325 318 313 310 306 303 301 300 301 305 310 315 322 329 330 326 321 319 327 335 337 338 340 346 351 349 345 346 349 350 352 354 357 358 359 358 357 356 356 356
246 247 248 251 252 253 253 254 257 259 260 262 263 264 265 267 268 269 270 272 274 276 278 280 283 286 289 292 294 296 297 296 294 293 293 295 298 302 306 310 313 316 319 323 325 326 326 322 316 309 304 303 303 303 305 309 312 315 321 324 321 316 315 322 330 334 335 338 341 346 346 343 343 346 348 350 351 352 354 356 356 355 354 353 353
246 247 247 249 251 252 254 255 257 259 260 261 261 262 264 265 266 267 269 270 272 273 275 277 279 282 285 288 290 292 294 295 293 290 289 289 292 295 299 303 307 310 312 315 318 320 323 324 320 313 310 308 306 305 306 308 310 312 315 319 318 314 313 320 327 332 335 335 336 340 342 340 340 344 346 347 347 349 350 351 353 352 351 351 351
246 247 248 249 250 251 252 255 257 258 260 260 259 260 261 263 264 266 267 268 269 270 272 274 276 279 282 285 287 290 291 292 292 290 287 285 286 289 293 297 300 303 307 310 313 315 316 318 317 313 312 312 309 308 308 308 309 310 311 314 314 310 310 319 324 327 330 330 328 330 335 337 338 340 343 344 345 347 348 348 348 348 348 349 349
246 246 247 248 250 251 252 253 255 256 258 259 259 260 261 262 263 264 265 265 266 268 270 272 274 277 280 282 285 287 289 289 290 290 288 285 284 285 288 292 294 297 301 305 308 311 310 311 312 310 309 310 310 310 309 309 309 309 310 312 311 307 308 317 320 320 323 323 322 323 329 334 335 335 337 339 341 343 344 344 344 345 345 346 346
247 247 247 247 248 250 252 253 254 254 256 257 259 260 261 262 263 263 264 264 266 267 269 271 273 275 277 280 282 284 286 287 287 287 287 285 284 284 285 288 290 292 296 299 303 306 306 306 307 307 305 307 309 308 307 307 308 309 311 312 309 307 311 316 317 316 317 318 317 319 323 327 329 330 331 333 335 336 338 341 341 342 342 342 343
249 249 248 248 248 249 251 254 255 256 256 257 258 259 261 263 263 264 265 265 266 267 268 270 272 274 276 278 280 281 282 283 284 284 283 283 283 283 283 284 286 288 291 295 298 301 303 303 304 304 304 304 305 305 304 305 306 308 309 308 306 308 312 314 314 314 314 313 312 313 316 319 323 325 325 325 327 331 335 337 338 339 340 340 341
250 250 249 249 249 250 251 253 255 256 257 258 258 258 260 262 263 264 265 266 266 267 268 270 271 273 275 276 278 278 279 280 280 280 280 280 280 280 281 282 283 285 287 291 293 296 298 301 302 303 302 303 303 303 304 305 305 305 305 302 301 305 310 312 312 313 312 311 309 309 311 314 316 319 320 321 324 328 332 333 333 335 337 338 339
251 250 250 250 250 250 250 251 253 255 256 257 258 258 259 260 262 263 264 265 266 267 268 270 272 274 275 276 276 276 276 276 277 277 277 277 277 278 278 279 280 282 284 286 289 291 293 296 299 300 300 300 301 302 303 303 303 303 301 300 301 304 308 310 309 309 310 310 310 309 309 311 313 315 318 321 323 326 328 329 330 332 334 335 336
254 253 251 251 250 250 249 250 252 253 255 255 256 257 257 258 260 261 263 265 267 268 270 272 274 274 275 275 275 275 275 274 274 275 274 274 275 276 276 277 278 280 282 284 285 287 290 292 295 297 297 297 298 299 300 301 303 303 302 302 302 304 306 307 306 305 306 308 308 307 307 309 311 314 317 319 321 323 325 326 327 329 330 332 334
Height
10987 10987 10988 10989 10990 10990 10989 10990 10990 10990 10989 10988 10986 10984 10982 10979 10974 10973 10978 10982 10980 10978 10977 10975 10973 10972 10969 10965 10963 10962 10961 10960 10958 10956 10955 10953 10952 10951 10949 10948 10947 10946 10944 10943 10942 10942 10941 10940 10940 10939 10939 10938 10938 10938 10938 10938 10937 10937 10937 10937 10937 10937 10937 10937 10937 10937 10937 10936 10936 10935 10935 10934 10934 10933 10933 10932 10931 10931 10930 10930 10929 10929 10928 10928 10927
10991 10991 10992 10993 10994 10993 10992 10993 10993 10992 10992 10990 10989 10986 10985 10981 10976 10977 10984 10987 10983 10980 10979 10978 10976 10974 10972 10969 10967 10966 10965 10963 10962 10960 10959 10957 10956 10954 10953 10952 10950 10949 10947 10946 10945 10944 10943 10943 10942 10941 10941 10940 10940 10940 10940 10940 10940 10939 10939 10940 10940 10940 10939 10939 10939 10938 10938 10937 10937 10937 10936 10936 10935 10935 10934 10934 10933 10933 10932 10932 10931 10931 10930 10930 10929
10995 10995 10996 10997 10996 10995 10995 10995 10995 10994 10994 10993 10992 10991 10988 10985 10984 10987 10991 10992 10987 10984 10982 10981 10980 10977 10975 10974 10972 10970 10969 10967 10966 10964 10963 10961 10959 10958 10957 10956 10955 10954 10952 10950 10949 10947 10947 10946 10945 10944 10944 10943 10943 10943 10943 10943 10943 10943 10943 10943 10942 10942 10941 10941 10940 10940 10939 10939 10939 10938 10938 10938 10937 10937 10936 10936 10935 10935 10935 10935 10934 10934 10933 10932 10932
10997 10998 11000 11000 11000 10998 10997 10998 10997 10997 10998 10998 10998 10996 10993 10992 10993 10996 10997 10995 10991 10988 10986 10985 10984 10982 10980 10979 10977 10975 10973 10971 10969 10967 10966 10964 10962 10961 10960 10959 10959 10958 10957 10956 10954 10952 10951 10950 10949 10948 10948 10947 10946 10946 10946 10946 10946 10946 10945 10945 10944 10943 10943 10943 10942 10942 10942 10942 10941 10941 10941 10940 10940 10939 10939 10939 10939 10939 10938 10938 10937 10936 10935 10934 10933
11000 11001 11002 11002 11002 11000 10999 11000 11000 11000 11001 11001 11001 10999 10998 10998 10999 11000 10999 10997 10994 10991 10990 10989 10988 10986 10984 10983 10982 10980 10977 10974 10972 10970 10968 10966 10965 10964 10963 10962 10961 10961 10960 10959 10958 10957 10955 10954 10953 10953 10952 10951 10950 10950 10949 10949 10949 10948 10947 10947 10946 10946 10946 10945 10945 10945 10945 10945 10944 10944 10944 10944 10943 10943 10943 10943 10942 10941 10941 10940 10939 10938 10937 10936 10935
11003 11004 11004 11003 11003 11003 11001 11002 11002 11002 11003 11003 11002 11002 11002 11003 11003 11003 11001 10999 10996 10995 10993 10992 10991 10989 10988 10986 10984 10982 10980 10977 10975 10973 10971 10969 10967 10966 10966 10964 10963 10962 10962 10961 10960 10959 10959 10958 10957 10956 10955 10954 10953 10953 10952 10951 10950 10950 10949 10949 10949 10949 10948 10948 10948 10948 10948 10948 10948 10948 10947 10947 10947 10946 10946 10945 10944 10943 10942 10941 10940 10939 10938 10937 10936
11005 11006 11007 11006 11005 11005 11004 11004 11005 11005 11005 11005 11005 11005 11006 11007 11006 11005 11003 11001 10999 10998 10996 10994 10993 10992 10990 10988 10986 10984 10981 10979 10977 10975 10973 10971 10969 10968 10968 10967 10965 10964 10963 10962 10962 10961 10961 10960 10959 10958 10958 10957 10956 10955 10954 10953 10952 10952 10952 10951 10951 10951 10951 10951 10951 10951 10951 10951 10951 10951 10951 10950 10949 10949 10948 10947 10945 10944 10943 10942 10941 10940 10939 10938 10937
11008 11008 11008 11008 11008 11007 11007 11007 11008 11007 11008 11008 11008 11008 11008 11008 11008 11007 11005 11004 11002 11001 10999 10997 10995 10994 10992 10990 10987 10985 10982 10980 10978 10976 10974 10972 10971 10970 10969 10968 10968 10966 10965 10964 10964 10963 10963 10962 10961 10960 10960 10959 10958 10957 10956 10956 10955 10955 10954 10954 10954 10954 10954 10954 10954 10954 10954 10954 10954 10954 10953 10952 10951 10950 10949 10947 10946 10945 10944 10943 10942 10941 10940 10938 10937
11010 11009 11009 11009 11009 11009 11010 11010 11010 11010 11010 11010 11010 11011 11010 11010 11010 11009 11007 11006 11004 11003 11001 10999 10997 10995 10993 10991 10989 10986 10983 10981 10979 10977 10975 10973 10972 10971 10970 10969 10969 10968 10967 10967 10965 10965 10964 10963 10963 10962 10961 10961 10960 10960 10959 10958 10958 10957 10957 10957 10957 10956 10956 10956 10957 10957 10957 10956 10956 10955 10954 10953 10952 10951 10949 10948 10947 10945 10944 10943 10942 10941 10940 10939 10938
11013 11012 11011 11011 11011 11011 11011 11012 11012 11013 11012 11012 11013 11013 11012 11011 11011 11010 11009 11008 11006 11004 11002 11001 10999 10997 10995 10992 10990 10987 10985 10983 10981 10978 10976 10974 10973 10972 10971 10970 10969 10969 10969 10968 10967 10966 10965 10965 10964 10964 10963 10962 10962 10962 10961 10961 10960 10960 10959 10959 10959 10958 10958 10958 10958 10958 10958 10958 10957 10956 10955 10954 10952 10951 10950 10948 10947 10946 10945 10944 10943 10942 10941 10940 10938
11015 11014 11014 11014 11014 11013 11013 11013 11015 11015 11014 11015 11015 11015 11013 11013 11013 11012 11011 11009 11007 11005 11003 11002 11000 10998 10996 10994 10991 10989 10986 10984 10982 10979 10977 10975 10973 10972 10971 10970 10970 10969 10969 10968 10967 10967 10966 10965 10965 10964 10964 10964 10963 10963 10963 10962 10962 10962 10961 10961 10960 10960 10960 10959 10959 10959 10959 10958 10957 10956 10955 10954 10953 10952 10950 10949 10948 10947 10946 10945 10944 10943 10942 10940 10939
11017 11017 11016 11017 11017 11017 11017 11017 11018 11017 11016 11017 11017 11017 11016 11015 11015 11014 11013 11011 11009 11007 11005 11003 11001 10999 10997 10995 10992 10990 10987 10985 10983 10980 10978 10977 10975 10973 10972 10971 10970 10970 10969 10968 10968 10967 10966 10966 10965 10965 10964 10964 10964 10963 10963 10963 10963 10962 10962 10962 10961 10961 10961 10960 10960 10959 10959 10958 10958 10957 10956 10955 10954 10952 10951 10950 10949 10948 10947 10946 10945 10944 10943 10941 10940
11018 11018 11018 11018 11019 11020 11020 11020 11020 11020 11019 11019 11019 11019 11018 11018 11016 11015 11014 11012 11010 11008 11006 11004 11002 11001 10999 10996 10994 10991 10989 10986 10984 10982 10980 10978 10977 10975 10974 10973 10972 10971 10970 10969 10968 10967 10967 10966 10965 10965 10964 10964 10963 10963 10963 10963 10962 10962 10962 10962 10961 10961 10961 10960 10960 10959 10959 10958 10957 10957 10956 10955 10954 10954 10953 10951 10950 10949 10948 10947 10946 10945 10943 10942 10940
11020 11020 11020 11020 11020 11021 11021 11021 11022 11022 11022 11022 11022 11021 11021 11020 11018 11016 11014 11013 11011 11009 11007 11005 11003 11002 11000 10997 10995 10993 10990 10987 10985 10983 10981 10980 10978 10977 10976 10975 10974 10972 10971 10970 10968 10968 10967 10966 10965 10964 10964 10963 10963 10963 10962 10962 10962 10961 10961 10961 10961 10960 10960 10960 10959 10959 10958 10958 10957 10957 10956 10956 10955 10954 10954 10953 10952 10950 10949 10948 10947 10945 10944 10942 10941
11022 11022 11021 11021 11022 11022 11022 11022 11023 11023 11024 11025 11025 11024 11023 11021 11019 11017 11015 11014 11013 11010 11008 11006 11004 11003 11001 10998 10996 10994 10992 10989 10987 10984 10982 10981 10980 10978 10977 10976 10975 10974 10972 10971 10970 10968 10968 10967 10966 10965 10964 10963 10963 10962 10962 10961 10961 10961 10960 10960 10959 10959 10959 10958 10958 10958 10958 10957 10957 10957 10956 10956 10956 10955 10954 10953 10952 10951 10949 10948 10947 10945 10944 10942 10941
11023 11023 11023 11023 11023 11023 11024 11023 11024 11024 11024 11025 11025 11025 11023 11022 11021 11018 11017 11016 11013 11011 11009 11007 11005 11004 11002 11000 10998 10995 10993 10991 10989 10987 10985 10983 10982 10981 10979 10977 10976 10975 10974 10972 10970 10969 10968 10967 10966 10965 10964 10963 10962 10962 10961 10961 10960 10960 10959 10959 10958 10958 10958 10958 10958 10958 10958 10958 10957 10957 10957 10957 10956 10955 10954 10954 10952 10951 10950 10948 10947 10945 10944 10942 10941
11024 11024 11024 11024 11024 11025 11025 11024 11024 11024 11024 11024 11025 11024 11024 11023 11021 11020 11018 11017 11014 11012 11010 11008 11006 11005 11003 11001 10999 10997 10995 10993 10991 10989 10987 10985 10984 10983 10981 10980 10978 10976 10975 10973 10972 10970 10969 10968 10967 10965 10964 10963 10962 10961 10960 10960 10959 10959 10958 10958 10957 10957 10957 10957 10958 10958 10958 10958 10958 10957 10957 10957 10956 10955 10954 10954 10952 10951 10950 10949 10947 10946 10944 10943 10941
11026 11026 11026 11026 11026 11026 11026 11026 11025 11025 11025 11025 11025 11025 11024 11024 11022 11021 11019 11017 11015 11013 11011 11009 11008 11006 11004 11002 11000 10998 10997 10995 10993 10991 10989 10987 10986 10984 10983 10981 10980 10978 10976 10975 10973 10972 10970 10969 10967 10966 10964 10963 10962 10961 10960 10959 10958 10958 10957 10957 10956 10956 10957 10957 10957 10957 10957 10957 10957 10957 10957 10957 10956 10955 10955 10954 10953 10952 10951 10949 10948 10946 10945 10943 10941
11027 11027 11027 11027 11027 11027 11027 11027 11026 11026 11026 11026 11025 11025 11025 11024 11023 11022 11020 11018 11016 11014 11012 11011 11009 11007 11006 11004 11002 11001 10999 10997 10995 10993 10991 10989 10988 10986 10984 10983 10981 10980 10978 10976 10975 10973 10971 10969 10968 10966 10964 10963 10962 10961 10960 10959 10958 10957 10957 10956 10956 10956 10956 10956 10956 10956 10956 10956 10956 10957 10957 10957 10956 10955 10955 10954 10953 10952 10951 10949 10948 10946 10945 10943 10941
11027 11027 11028 11028 11028 11028 11028 11027 11027 11027 11026 11026 11026 11026 11025 11024 11023 11022 11020 11019 11017 11015 11014 11012 11011 11009 11007 11006 11004 11003 11001 10999 10997 10995 10993 10991 10990 10988 10986 10985 10983 10982 10980 10978 10976 10974 10972 10970 10968 10966 10965 10963 10962 10961 10959 10959 10958 10957 10957 10956 10956 10956 10956 10956 10956 10956 10956 10956 10957 10957 10957 10957 10956 10955 10955 10954 10953 10952 10951 10949 10948 10946 10944 10942 10940
11028 11028 11028 11028 11028 11028 11028 11028 11027 11027 11027 11026 11026 11026 11025 11025 11024 11022 11021 11019 11018 11017 11015 11014 11012 11010 11009 11007 11006 11004 11003 11001 10999 10997 10995 10993 10991 10990 10988 10987 10985 10983 10981 10979 10977 10975 10973 10971 10968 10967 10965 10964 10962 10961 10960 10959 10958 10957 10957 10956 10956 10956 10956 10956 10956 10956 10956 10956 10957 10957 10957 10957 10956 10956 10955 10954 10953 10952 10951 10949 10947 10945 10943 10941 10940
11029 11029 11029 11029 11028 11028 11028 11028 11028 11027 11027 11027 11027 11026 11026 11025 11024 11023 11022 11020 11019 11018 11016 11015 11013 11012 11010 11008 11007 11005 11004 11002 11000 10998 10996 10994 10993 10991 10990 10988 10986 10984 10983 10980 10978 10976 10973 10971 10969 10968 10966 10964 10963 10961 10960 10959 10958 10957 10957 10957 10956 10956 10956 10956 10957 10957 10957 10957 10957 10957 10957 10957 10956 10956 10955 10954 10953 10952 10951 10949 10947 10945 10943 10941 10940
11030 11030 11029 11029 11029 11029 11029 11029 11028 11028 11027 11027 11027 11027 11026 11026 11025 11024 11023 11021 11020 11019 11017 11016 11014 11012 11011 11010 11008 11007 11005 11003 11001 10999 10997 10996 10994 10993 10991 10990 10988 10986 10984 10982 10979 10976 10974 10972 10970 10968 10967 10965 10964 10962 10961 10960 10959 10959 10958 10958 10958 10958 10958 10957 10957 10957 10957 10957 10957 10957 10957 10957 10956 10956 10955 10954 10953 10952 10950 10949 10947 10945 10943 10941 10939
11030 11030 11030 11030 11029 11029 11029 11029 11029 11028 11028 11027 11027 11027 11027 11026 11025 11024 11023 11022 11021 11019 11018 11016 11015 11013 11012 11011 11009 11008 11006 11004 11002 11000 10998 10997 10995 10994 10993 10991 10990 10988 10985 10983 10980 10978 10975 10973 10972 10970 10968 10967 10965 10964 10963 10962 10961 10961 10960 10960 10960 10960 10959 10959 10959 10958 10958 10958 10958 10958 10958 10957 10957 10956 10955 10954 10953 10951 10950 10948 10946 10944 10942 10940 10938
11030 11030 11030 11030 11030 11030 11029 11029 11029 11029 11028 11028 11028 11027 11027 11026 11025 11025 11024 11023 11021 11020 11018 11017 11015 11014 11013 11012 11010 11009 11007 11006 11004 11001 10999 10998 10997 10995 10994 10993 10991 10989 10986 10984 10981 10979 10977 10975 10973 10972 10970 10969 10967 10966 10965 10965 10964 10964 10964 10963 10963 10962 10962 10961 10961 10960 10959 10959 10958 10958 10958 10957 10957 10956 10955 10954 10952 10950 10949 10947 10945 10943 10941 10940 10938
11030 11030 11030 11030 11029 11029 11029 11029 11029 11029 11028 11028 11028 11027 11027 11026 11025 11025 11024 11023 11022 11020 11019 11017 11016 11015 11014 11013 11011 11010 11009 11007 11005 11002 11000 10999 10998 10997 10995 10994 10992 10990 10987 10985 10982 10980 10978 10977 10976 10975 10974 10972 10971 10970 10969 10968 10968 10967 10967 10967 10966 10965 10964 10963 10963 10962 10961 10960 10960 10959 10958 10958 10957 10956 10954 10953 10951 10950 10948 10947 10945 10943 10941 10940 10938
11030 11030 11030 11029 11029 11029 11029 11029 11029 11028 11028 11028 11028 11028 11027 11026 11026 11025 11024 11024 11023 11021 11020 11018 11017 11016 11015 11014 11013 11011 11010 11008 11006 11004 11001 11000 10999 10998 10997 10995 10993 10991 10988 10986 10984 10982 10981 10979 10978 10978 10977 10976 10975 10974 10973 10972 10972 10971 10970 10970 10969 10968 10967 10966 10965 10964 10963 10962 10961 10960 10959 10958 10957 10956 10954 10953 10951 10950 10948 10947 10945 10943 10942 10940 10938
11029 11029 11029 11029 11029 11028 11028 11028 11028 11028 11028 11028 11028 11027 11027 11026 11026 11025 11025 11024 11023 11022 11021 11019 11018 11017 11016 11015 11014 11012 11011 11009 11007 11005 11003 11001 11000 10999 10998 10996 10995 10992 10990 10987 10985 10984 10983 10982 10981 10980 10980 10979 10978 10978 10977 10976 10976 10974 10973 10972 10971 10970 10969 10968 10967 10966 10964 10963 10962 10961 10960 10959 10958 10957 10955 10954 10952 10951 10949 10947 10946 10944 10942 10941 10939
11028 11028 11028 11028 11028 11028 11028 11028 11028 11027 11027 11027 11027 11027 11027 11026 11026 11025 11025 11024 11024 11023 11022 11020 11019 11018 11017 11016 11014 11013 11012 11010 11008 11006 11004 11003 11002 11001 10999 10997 10996 10993 10991 10989 10987 10986 10985 10984 10983 10983 10982 10982 10981 10981 10980 10979 10978 10977 10976 10975 10973 10972 10971 10970 10969 10967 10966 10964 10963 10962 10961 10960 10959 10958 10956 10955 10953 10951 10950 10948 10946 10944 10942 10940 10938
11027 11027 11027 11027 11027 11027 11027 11027 11027 11027 11027 11027 11027 11027 11027 11026 11026 11025 11025 11024 11024 11023 11022 11021 11020 11019 11017 11016 11015 11014 11012 11011 11009 11007 11005 11004 11003 11002 11000 10998 10997 10995 10993 10991 10989 10988 10988 10987 10986 10985 10985 10985 10984 10983 10982 10981 10980 10979 10978 10977 10975 10974 10973 10971 10970 10968 10967 10966 10965 10964 10963 10961 10960 10959 10957 10956 10954 10952 10950 10948 10946 10944 10941 10939 10936
11025 11026 11026 11026 11026 11026 11026 11026 11026 11026 11026 11026 11026 11026 11026 11026 11025 11025 11024 11024 11024 11023 11022 11021 11020 11019 11018 11016 11015 11014 11013 11012 11010 11009 11007 11005 11004 11003 11001 11000 10998 10997 10995 10994 10992 10991 10990 10989 10988 10988 10987 10987 10986 10985 10984 10983 10982 10981 10979 10978 10976 10975 10974 10972 10971 10969 10968 10967 10966 10965 10964 10962 10961 10959 10958 10956 10954 10951 10949 10947 10945 10942 10940 10937 10934
11024 11024 11024 11025 11025 11025 11025 11025 11025 11025 11025 11025 11025 11025 11025 11025 11025 11024 11024 11024 11023 11023 11022 11021 11020 11019 11018 11017 11016 11014 11013 11012 11011 11009 11008 11006 11004 11003 11002 11001 11000 10999 10998 10996 10995 10993 10992 10991 10991 10990 10989 10988 10988 10987 10986 10985 10983 10982 10980 10978 10977 10975 10974 10973 10971 10970 10968 10967 10966 10965 10963 10961 10960 10958 10957 10955 10952 10950 10948 10946 10943 10941 10938 10936 10933
11022 11022 11023 11023 11023 11024 11024 11024 11024 11024 11024 11024 11024 11024 11024 11024 11024 11024 11023 11023 11023 11022 11022 11021 11020 11019 11018 11017 11016 11015 11013 11012 11011 11010 11008 11007 11005 11004 11003 11002 11002 11001 11000 10999 10997 10996 10994 10993 10993 10992 10991 10990 10989 10988 10987 10985 10984 10982 10980 10979 10977 10976 10974 10972 10971 10969 10968 10967 10965 10964 10962 10960 10958 10957 10955 10953 10951 10948 10946 10944 10942 10940 10937 10934 10931
11020 11020 11021 11021 11022 11022 11022 11022 11023 11023 11023 11023 11023 11023 11023 11023 11023 11023 11023 11022 11022 11022 11021 11021 11020 11019 11018 11017 11016 11015 11014 11012 11011 11010 11009 11008 11006 11005 11004 11003 11003 11003 11002 11000 10999 10998 10996 10995 10994 10993 10992 10990 10989 10988 10987 10985 10984 10983 10981 10979 10978 10976 10974 10972 10970 10969 10967 10966 10964 10963 10961 10959 10957 10955 10953 10951 10949 10947 10945 10943 10941 10939 10936 10934 10931
11017 11018 11019 11019 11020 11020 11020 11021 11021 11021 11021 11021 11022 11022 11022 11022 11022 11022 11022 11021 11021 11021 11021 11020 11020 11019 11018 11017 11016 11015 11014 11013 11011 11010 11009 11008 11007 11006 11005 11004 11004 11003 11003 11002 11001 10999 10998 10997 10996 10994 10992 10991 10989 10988 10987 10986 10984 10983 10981 10980 10978 10976 10974 10972 10970 10968 10967 10965 10964 10962 10961 10959 10957 10955 10952 10951 10949 10947 10945 10942 10940 10938 10936 10933 10930
11015 11016 11017 11017 11018 11018 11019 11019 11019 11019 11019 11020 11020 11021 11021 11021 11021 11021 11021 11021 11020 11020 11020 11020 11019 11019 11018 11017 11016 11015 11014 11013 11011 11010 11009 11009 11008 11006 11005 11004 11004 11004 11003 11002 11001 11000 10998 10997 10996 10994 10993 10991 10990 10989 10988 10986 10984 10983 10981 10980 10978 10976 10974 10972 10970 10969 10967 10965 10964 10962 10961 10959 10958 10955 10953 10951 10949 10947 10945 10942 10940 10937 10935 10932 10929
11013 11013 11014 11015 11016 11016 11016 11016 11016 11017 11017 11018 11018 11019 11019 11020 11020 11020 11020 11020 11019 11019 11019 11019 11018 11018 11017 11016 11015 11015 11014 11013 11012 11010 11009 11008 11008 11006 11005 11004 11004 11004 11003 11002 11001 10999 10998 10996 10996 10995 10993 10992 10990 10989 10988 10986 10984 10983 10982 10980 10978 10976 10975 10973 10971 10969 10967 10965 10963 10962 10960 10959 10957 10955 10953 10950 10948 10946 10944 10941 10939 10937 10934 10931 10927
11010 11011 11012 11012 11013 11014 11014 11014 11014 11014 11015 11015 11016 11016 11017 11018 11018 11018 11018 11018 11018 11018 11018 11018 11017 11017 11016 11015 11014 11014 11013 11013 11012 11010 11009 11008 11007 11006 11005 11004 11004 11003 11003 11002 11001 10999 10997 10996 10995 10995 10994 10992 10990 10989 10988 10987 10985 10984 10982 10980 10978 10976 10974 10973 10971 10969 10967 10965 10962 10960 10959 10958 10955 10953 10951 10949 10947 10945 10943 10941 10938 10935 10932 10929 10926
11007 11008 11009 11010 11011 11011 11012 11011 11012 11012 11013 11013 11014 11014 11015 11015 11016 11016 11016 11016 11016 11016 11016 11016 11016 11016 11015 11014 11013 11012 11012 11012 11011 11010 11008 11007 11006 11005 11005 11004 11003 11003 11002 11001 11000 10998 10996 10996 10995 10994 10993 10992 10990 10988 10988 10987 10985 10983 10982 10980 10979 10976 10973 10972 10970 10969 10968 10966 10963 10959 10958 10957 10955 10953 10951 10949 10947 10944 10942 10940 10937 10934 10931 10927 10924
11004 11005 11006 11007 11008 11008 11009 11009 11009 11009 11010 11011 11011 11012 11012 11012 11013 11014 11014 11014 11014 11014 11015 11014 11014 11014 11014 11013 11012 11011 11010 11010 11010 11009 11008 11006 11005 11004 11004 11003 11003 11002 11001 11000 10999 10997 10996 10995 10994 10993 10992 10991 10989 10987 10986 10986 10985 10983 10981 10980 10978 10976 10974 10971 10968 10966 10966 10965 10963 10959 10956 10955 10955 10954 10951 10949 10947 10944 10940 10938 10936 10933 10930 10927 10923
11001 11002 11003 11004 11005 11005 11006 11006 11006 11007 11007 11008 11009 11009 11009 11009 11010 11011 11011 11011 11012 11012 11012 11012 11012 11012 11012 11011 11010 11009 11008 11008 11008 11008 11007 11005 11004 11003 11003 11002 11001 11001 11001 10999 10998 10996 10995 10994 10994 10992 10991 10990 10988 10986 10985 10985 10984 10982 10981 10979 10977 10975 10973 10971 10967 10964 10963 10963 10962 10960 10956 10954 10953 10952 10950 10948 10945 10943 10939 10936 10934 10931 10928 10924 10921
10997 10999 11000 11000 11001 11002 11003 11003 11003 11004 11005 11006 11006 11006 11006 11006 11007 11007 11008 11008 11008 11009 11009 11010 11009 11009 11009 11009 11008 11007 11006 11006 11006 11006 11006 11004 11003 11002 11001 11000 10999 10999 10999 10998 10998 10996 10995 10994 10993 10992 10990 10988 10987 10985 10984 10983 10982 10981 10980 10978 10976 10974 10972 10970 10967 10963 10961 10960 10960 10959 10956 10953 10952 10950 10948 10945 10942 10940 10938 10936 10933 10929 10925 10922 10919
10994 10995 10996 10997 10998 10999 10999 10999 11000 11001 11002 11003 11003 11003 11003 11003 11003 11004 11004 11005 11005 11005 11006 11006 11006 11006 11006 11006 11006 11005 11004 11003 11003 11003 11003 11003 11001 11000 11000 10999 10997 10997 10997 10997 10996 10995 10994 10993 10991 10990 10988 10987 10985 10982 10981 10981 10980 10979 10978 10976 10975 10973 10970 10968 10966 10963 10959 10957 10956 10956 10954 10951 10950 10948 10946 10943 10940 10938 10936 10934 10932 10928 10924 10921 10918
10990 10991 10992 10993 10994 10995 10996 10996 10997 10997 10999 11000 11000 11000 11000 11000 11000 11000 11000 11001 11001 11002 11002 11003 11003 11003 11003 11003 11003 11002 11001 11001 11000 11000 11000 11000 10999 10998 10998 10997 10996 10995 10994 10994 10994 10994 10993 10992 10990 10987 10986 10984 10982 10980 10978 10978 10977 10976 10975 10974 10972 10971 10968 10966 10965 10963 10959 10955 10953 10953 10953 10950 10947 10946 10943 10941 10938 10935 10932 10930 10929 10927 10923 10920 10916
10986 10987 10988 10989 10990 10991 10992 10993 10993 10994 10995 10996 10997 10997 10996 10996 10996 10996 10996 10997 10997 10998 10999 10999 10999 11000 11000 11000 11000 10999 10998 10998 10997 10997 10997 10997 10997 10996 10995 10995 10994 10993 10992 10992 10992 10991 10991 10990 10988 10985 10983 10982 10980 10978 10976 10975 10974 10973 10973 10971 10970 10968 10967 10965 10963 10961 10959 10955 10951 10950 10951 10948 10944 10942 10941 10938 10936 10933 10930 10927 10925 10923 10920 10916 10914
10982 10982 10983 10985 10986 10987 10988 10988 10989 10990 10991 10992 10993 10993 10993 10993 10992 10992 10992 10992 10993 10994 10995 10995 10996 10996 10996 10997 10997 10996 10995 10994 10994 10994 10993 10993 10993 10993 10993 10992 10991 10990 10990 10989 10989 10989 10988 10987 10986 10983 10981 10979 10978 10976 10974 10972 10971 10970 10970 10969 10967 10965 10964 10964 10962 10960 10958 10955 10952 10948 10948 10946 10942 10939 10938 10937 10935 10932 10930 10927 10923 10920 10916 10913 10910
10977 10978 10979 10980 10982 10983 10983 10984 10984 10986 10986 10987 10988 10989 10989 10989 10988 10987 10987 10988 10989 10990 10990 10991 10992 10992 10993 10993 10994 10993 10992 10991 10990 10990 10990 10989 10989 10989 10989 10989 10988 10987 10986 10986 10986 10986 10984 10983 10982 10981 10979 10977 10976 10975 10973 10971 10969 10967 10966 10965 10964 10962 10961 10960 10960 10959 10957 10954 10951 10947 10945 10944 10942 10937 10935 10935 10933 10930 10927 10925 10922 10918 10914 10910 10907
10972 10973 10975 10976 10977 10978 10979 10980 10980 10981 10982 10982 10983 10984 10984 10984 10983 10982 10982 10983 10984 10985 10986 10987 10988 10988 10989 10990 10990 10990 10989 10988 10987 10987 10986 10985 10985 10985 10985 10985 10984 10984 10983 10983 10982 10982 10981 10980 10979 10978 10976 10975 10974 10972 10970 10968 10966 10964 10963 10962 10961 10958 10957 10956 10956 10957 10956 10954 10950 10947 10944 10943 10941 10937 10933 10931 10932 10929 10925 10921 10919 10916 10912 10908 10903
10968 10969 10970 10971 10973 10974 10975 10976 10976 10976 10977 10977 10977 10979 10979 10978 10978 10977 10977 10977 10978 10980 10981 10982 10983 10984 10985 10986 10986 10986 10985 10984 10983 10983 10982 10981 10981 10982 10981 10981 10980 10980 10979 10979 10978 10978 10977 10976 10975 10975 10973 10971 10970 10968 10967 10965 10963 10962 10960 10960 10958 10957 10954 10952 10950 10950 10952 10952 10949 10945 10942 10941 10940 10938 10933 10928 10926 10926 10923 10918 10916 10914 10911 10906 10901
10964 10964 10966 10967 10968 10969 10970 10971 10971 10972 10972 10972 10972 10973 10973 10972 10972 10971 10971 10971 10972 10974 10976 10978 10979 10980 10980 10981 10981 10981 10981 10980 10979 10978 10977 10976 10976 10977 10977 10977 10976 10976 10976 10975 10974 10974 10974 10973 10972 10971 10970 10968 10966 10965 10963 10962 10960 10959 10957 10956 10955 10954 10952 10950 10947 10945 10945 10947 10946 10942 10939 10937 10936 10935 10933 10927 10920 10918 10919 10916 10913 10910 10908 10904 10900
10959 10960 10961 10962 10963 10964 10965 10966 10967 10967 10967 10967 10967 10967 10967 10967 10966 10965 10965 10965 10966 10968 10971 10973 10974 10975 10975 10976 10976 10976 10976 10975 10974 10972 10971 10970 10971 10972 10972 10972 10972 10972 10972 10971 10970 10970 10970 10969 10969 10968 10967 10965 10963 10962 10960 10959 10957 10955 10954 10952 10952 10951 10949 10948 10947 10944 10941 10941 10941 10939 10936 10934 10932 10930 10929 10928 10922 10915 10912 10911 10909 10907 10904 10901 10897